Orjan Kihlstrom

Orjan Kihlstrom

Statistiques 2026

  • Courses courues : 258
  • Nb de victoires : 41
  • Nb de places : 112
  • Écart gagnant : 6
  • Réussite à la gagne : 16%
  • Réussite à la place : 43%
Musique : 0a 3a 1a 5a 3a 5a 5a 1a 7a 2a 3a 2a 3a 8a 6a 4a 5a 4a

Orjan Kihlstrom en quelques mots

Orjan Kihlstrom est né le 13 mai 1962 en Suède.

Il possède à son palmarès les deux courses de trot les plus importantes au monde : l'Elitloppet qu'il a remporté en 2003 avec From Above et le Grand Prix d'Amérique dans lequel il s'est imposé en 2014 avec Maharajah. A Vincennes, il a aussi remporté le Prix de France avec Naglo en 2004 et 2005 et le Prix de Paris avec Maharajah en 2011.

DateRangCatégorieAlloc.Dist.HippodromeChevalRed. KmSpé.
14/01/23 3 Trot 29 678€ 2 140m Swe-Kalmar Aetos Kronos 1'12"9 Attelé
14/01/23 8 Trot 22 605€ 2 140m Swe-Kalmar Dash 1'15"4 Attelé
14/01/23 3 Trot 22 605€ 2 140m Swe-Kalmar Friend Of Elves 1'13"8 Attelé
14/01/23 1 Trot 25 157€ 1 640m Swe-Kalmar Call Me Brodda 1'12"9 Attelé
14/01/23 8 Trot 22 605€ 2 140m Swe-Kalmar North Dakota 1'14"6 Attelé
10/03/12 5 Trot 11 506€ 2 140m Swe-Kalmar Friction 1'14"8 Attelé
24/06/12 2 Trot 20 920€ 1 640m Swe-Kalmar Yield Boko 1'11"0 Attelé
24/06/12 D Trot 10 460€ 3 160m Swe-Kalmar Saston Attelé
23/02/13 0 Trot 15 690€ 1 640m Swe-Kalmar Latitude Broline 1'15"0 Attelé
23/06/19 9 Trot 24 198€ 2 140m Swe-Kalmar Zlatan Knick 1'15"7 Attelé
24/06/18 2 Trot 19 398€ 1 640m Swe-Kalmar Volstead 1'10"6 Attelé
24/06/18 5 Trot 12 124€ 3 180m Swe-Kalmar Balfour 1'15"5 Attelé
24/06/18 2 Trot 12 124€ 2 140m Swe-Kalmar In Toto Sund 1'13"5 Attelé
24/06/18 6 Trot 12 124€ 2 140m Swe-Kalmar Uppohoppa 1'14"0 Attelé
23/06/19 3 Trot 24 198€ 2 140m Swe-Kalmar In Toto Sund 1'12"1 Attelé
05/03/22 0 Trot 7 352€ 2 160m Swe-Kalmar O.M. Genista Attelé
05/03/22 D Trot 21 715€ 2 160m Swe-Kalmar Cassius Ima Attelé
05/03/22 0 Trot 24 048€ 2 640m Swe-Kalmar Strong Heartbeat 1'14"9 Attelé
05/03/22 1 Trot 31 572€ 2 140m Swe-Kalmar Who's Who 1'13"3 Attelé
05/03/22 1 Trot 24 048€ 2 140m Swe-Kalmar Laferrari Dimanche 1'14"9 Attelé
05/03/22 4 Trot 26 762€ 2 140m Swe-Kalmar The Real Star 1'14"2 Attelé
05/03/22 0 Trot 24 048€ 2 140m Swe-Kalmar Honeybee Fro 1'15"7 Attelé
05/03/22 2 Trot 24 048€ 2 140m Swe-Kalmar Graces Candy 1'14"0 Attelé
23/06/24 0 Trot 6 628€ 2 140m Swe-Kalmar Gretl Brodda Attelé
23/06/24 2 Trot 28 809€ 2 140m Swe-Kalmar Felicia Zet 1'12"4 Attelé
23/06/24 0 Trot 21 891€ 2 140m Swe-Kalmar Harry Knows 1'13"7 Attelé
23/06/24 D Trot 28 809€ 2 140m Swe-Kalmar Attention Please Attelé
23/06/24 2 Trot 19 833€ 3 160m Swe-Kalmar Victory Eagle 1'15"2 Attelé
23/06/24 4 Trot 21 891€ 2 140m Swe-Kalmar Mary Wadd 1'12"8 Attelé
23/06/24 1 Trot 28 809€ 1 640m Swe-Kalmar Don Fanucci Zet 1'09"1 Attelé
23/06/24 5 Trot 24 387€ 2 140m Swe-Kalmar Rossi Garline 1'11"9 Attelé
22/06/25 3 Trot 11 794€ 2 140m Swe-Kalmar Belichic 1'15"3 Attelé
22/06/25 4 Trot 20 628€ 3 180m Swe-Kalmar Godfather 1'14"0 Attelé
22/06/25 5 Trot 25 364€ 2 140m Swe-Kalmar Mare Mareh 1'14"9 Attelé
22/06/25 4 Trot 25 364€ 2 140m Swe-Kalmar Nevermind River 1'14"4 Attelé
22/06/25 2 Trot 29 964€ 2 140m Swe-Kalmar Olly Haleryd 1'11"4 Attelé
22/06/25 2 Trot 29 964€ 1 640m Swe-Kalmar Mister Hercules 1'9"2 Attelé
22/06/25 5 Trot 29 964€ 2 140m Swe-Kalmar Jikken 1'12"0 Attelé
22/06/25 2 Trot 7 814€ 2 160m Swe-Kalmar Maraschino 1'15"3 Attelé
21/06/26 1 Trot 16 222€ 3 160m Swe-Kalmar Mr Carnation 1'14"4 Attelé
21/06/26 3 Trot 25 597€ 1 640m Swe-Kalmar Demon Marke 1'11"5 Attelé
21/06/26 3 Trot 27 344€ 2 140m Swe-Kalmar Nyras Daenker 1'12"9 Attelé
21/06/26 3 Trot 30 239€ 2 140m Swe-Kalmar Indy Boy 1'10"7 Attelé
21/06/20 4 Trot 10 286€ 2 140m Swe-Kalmar Brambling 1'15"8 Attelé
21/06/20 0 Trot 21 619€ 2 160m Swe-Kalmar Call Me Brodda 1'14"4 Attelé
21/06/20 7 Trot 21 619€ 2 140m Swe-Kalmar Thengill 1'14"7 Attelé
21/06/20 1 Trot 21 619€ 2 140m Swe-Kalmar Double Exposure 1'12"7 Attelé
21/06/20 4 Trot 24 429€ 3 160m Swe-Kalmar Guillaume Boko 1'15"9 Attelé
21/06/20 0 Trot 29 191€ 1 640m Swe-Kalmar Canari Match Attelé
21/06/20 6 Trot 24 429€ 2 140m Swe-Kalmar Hill Street 1'12"2 Attelé